#timestamp,LO_Frequency,Hit,StdDev 
1586736015.1,286046997.0,N
1586736016.0,286046997.0,N
1586736035.8,286046997.7,N
1586736055.7,286046998.7,N
1586736075.5,286047000.7,N
1586736095.3,286047000.6,N
1586736115.2,286047000.8,N
1586736135.0,286047000.4,N
1586736135.9,286047000.4,N
1586736155.8,286047002.3,N
1586736175.6,286047000.1,N
1586736195.4,286047000.5,N
1586736215.3,286047002.0,N
1586736235.1,286047001.9,N
1586736255.8,286047004.4,N
1586736275.7,286047005.8,N
1586736295.5,286047007.2,Y
1586736315.4,286047004.7,P
1586736335.2,286047005.7,N
1586736355.0,286047008.8,P
1586736355.9,286047008.8,N
1586736375.8,286047004.8,N
1586736395.6,286047003.3,N
1586736415.5,286047002.6,N
1586736435.3,286047001.7,N
1586736455.1,286047003.8,N
1586736475.9,286047002.1,N
1586736495.7,286047004.2,N
1586736515.5,286047003.0,N
1586736535.4,286047004.3,N
1586736555.2,286047009.2,Y
1586736575.1,286046999.7,P
1586736576.0,286046999.7,N
1586736595.8,286046998.2,N
1586736615.6,286046998.4,N
1586736635.5,286046999.0,N
1586736655.3,286047001.1,N
1586736675.2,286047001.0,N
1586736695.9,286046999.7,N
1586736715.7,286046998.7,N
1586736735.6,286047002.3,N
1586736755.4,286047003.6,N
1586736775.3,286047004.9,N
1586736795.1,286047001.8,N
1586736796.0,286047001.8,N
1586736815.8,286047004.4,N
1586736835.7,286047001.6,N
1586736855.5,286047001.3,N
1586736875.3,286047002.1,N
1586736895.2,286047002.3,N
1586736915.0,286046999.9,N
1586736915.9,286046999.9,N
1586736935.8,286047003.1,N
1586736955.6,286047002.9,N
1586736975.4,286047003.8,N
1586736995.3,286047007.4,Y
1586737015.1,286047003.3,P
1586737035.9,286047001.5,N
1586737055.7,286047002.4,N
1586737075.5,286047002.1,N
1586737095.4,286047000.9,N
1586737115.2,286047000.1,N
1586737135.0,286047002.4,N
1586737136.0,286047002.4,N
1586737155.8,286047002.1,N
1586737175.6,286047001.6,N
1586737195.5,286047001.5,N
1586737215.3,286047003.4,Y
1586737235.1,286047000.3,P
1586737255.9,286047002.3,P
1586737275.7,286047002.2,N
1586737295.6,286047002.3,N
1586737315.4,286047001.5,N
1586737335.2,286047004.6,Y
1586737355.1,286047003.8,P
1586737356.0,286047003.8,P
1586737375.8,286047002.5,N
1586737395.7,286046998.4,N
1586737415.5,286047001.1,N
1586737435.3,286046998.1,N
1586737455.2,286046999.9,N
1586737475.0,286046998.8,N
1586737475.9,286046998.8,N
1586737495.8,286047002.4,N
1586737515.6,286047002.3,N
1586737535.4,286047000.7,N
1586737555.3,286047001.4,N
1586737575.1,286047000.8,N
1586737595.9,286046998.3,N
1586737615.7,286047000.6,N
1586737635.5,286047000.7,N
1586737655.4,286046998.8,N
1586737675.2,286046999.8,N
1586737695.0,286046999.8,N
1586737695.9,286046999.8,N
1586737715.8,286047000.1,N
1586737735.6,286046999.8,N
1586737755.5,286046999.7,N
1586737775.3,286046998.1,N
1586737795.1,286047002.2,N
1586737815.9,286047004.0,N
1586737835.7,286047000.0,N
1586737855.5,286047002.5,N
1586737875.4,286047002.3,N
1586737895.2,286047002.4,N
1586737915.1,286047003.9,N
1586737916.0,286047003.9,N
1586737935.8,286047004.0,N
1586737955.6,286047002.3,N
1586737975.5,286047002.8,N
1586737995.3,286047001.8,N
1586738015.2,286047001.5,N
1586738035.9,286047003.6,N
1586738055.7,286047005.3,Y
1586738075.6,286047003.3,P
1586738095.4,286047004.1,P
1586738115.2,286047003.6,P
1586738135.1,286047004.4,Y
1586738136.0,286047004.4,P
1586738155.8,286047000.7,N
1586738175.7,286047000.2,N
1586738195.5,286047001.1,N
1586738215.3,286046998.5,N
1586738235.2,286046996.8,N
1586738255.0,286046993.7,N
1586738255.9,286046993.7,N
1586738275.8,286046995.7,N
1586738295.6,286046996.0,N
1586738315.4,286046995.0,N
1586738335.3,286046997.1,N
1586738355.1,286046997.5,N
1586738375.8,286046998.4,N
1586738395.7,286047002.8,N
1586738415.5,286047002.4,N
1586738435.4,286047000.4,N
1586738455.2,286046999.7,N
1586738475.0,286047002.5,N
1586738475.9,286047002.5,N
1586738495.8,286047000.9,N
1586738515.6,286046999.0,N
1586738535.5,286047000.7,N
1586738555.3,286046998.5,N
1586738575.1,286047000.1,N
1586738595.9,286046999.7,N
1586738615.7,286046999.2,N
1586738635.5,286046999.4,N
1586738655.4,286046997.8,N
1586738675.2,286046996.0,N
1586738695.1,286046999.2,N
1586738696.0,286046999.2,N
1586738715.8,286046999.1,N
1586738735.6,286046999.4,N
1586738755.5,286046999.1,N
1586738775.3,286047000.9,N
1586738795.1,286047000.3,N
1586738815.9,286047000.0,N
1586738835.7,286047000.7,N
1586738855.6,286046998.4,N
1586738875.4,286047000.0,N
1586738895.2,286047001.0,N
1586738915.1,286047000.2,N
1586738916.0,286047000.2,N
1586738935.8,286046999.9,N
1586738955.7,286047004.0,N
1586738975.5,286046999.8,N
1586738995.3,286047000.1,N
1586739015.2,286047000.6,N
1586739035.0,286047000.6,N
1586739035.9,286047000.6,N
1586739055.7,286046999.3,N
1586739075.6,286046997.9,N
1586739095.4,286046995.3,Y
1586739115.3,286046996.5,P
1586739135.1,286046998.8,N
1586739155.8,286046997.5,N
1586739175.7,286046995.3,Y
1586739195.5,286046998.1,P
1586739215.4,286047002.1,P
1586739235.2,286047003.4,N
1586739255.0,286047003.9,N
1586739255.9,286047003.9,N
1586739275.8,286047003.1,N
1586739295.6,286047004.3,N
1586739315.5,286047002.1,N
1586739335.3,286047002.0,N
1586739355.1,286046999.9,N
1586739375.9,286047000.9,N
1586739395.7,286047002.7,N
1586739415.6,286047002.7,N
1586739435.4,286047000.5,N
1586739455.2,286047000.7,N
1586739475.1,286047002.8,N
1586739476.0,286047002.8,N
1586739495.8,286047001.2,N
1586739515.7,286047000.5,N
1586739535.5,286047002.7,N
1586739555.3,286047002.2,N
1586739575.2,286047000.0,N
1586739595.0,286047000.2,N
1586739595.9,286047000.2,N
